Weather in Matsumoto

Japan     36°13′56″N   137°58′01″E
temp.,
°C
wind,
m/s
gust,
m/s
humid.,
%
clouds,
%
prec.,
mm/h
press.,
hPa
HPBL,
m
17 september, fri
fri1700:00+15e1287100 0.0 1018114
03:00+15se128883 0.0 101792
06:00+15se128792 0.0 1017107
09:00+20se136996 0.0 1016800
12:00+24sse1454100 0.0 10131413
15:00+23sse4660100 0.1 10121221
18:00+17se2486100 0.2 1014165
21:00+16sse2597100 1.9 1013193
18 september, sat
sat1800:00+16sse2497100 0.7 1013174
03:00+16sse2498100 1.4 1012148
06:00+16se2398100 1.3 1011102
09:00+17sse1297100 2.3 1011132
12:00+18sse1196100 0.3 101098
15:00+18n1198100 1.6 100965
18:00+17n22100100 0.4 1011109
21:00+17nnw01100100 1.9 1012106
19 september, sun
sun1900:00+17nnw1210089 0.3 1012123
03:00+16nnw1310089 0.3 1012201
06:00+17n24100100 0.0 1013239
09:00+17n2399100 0.1 1014201
12:00+21n2275100 0.2 1013809
15:00+22nne1168100 0.2 1012840
18:00+19nne118744 0.0 101326
21:00+17n1194100 0.1 101533
20 september, mon
mon2000:00+15nw119771 0.0 101625
03:00+16w009772 0.1 101535
06:00+16nw019576 0.0 101645
09:00+19e118979 0.1 1017284
12:00+24ene216745 0.1 10151003
15:00+23ene227433 0.6 1014637
18:00+18e2389100 0.3 1016107
21:00+17e2291100 0.4 1018121
21 september, tue
tue2100:00+16e1292100 0.1 101899
03:00+15e129297 0.1 1017105
06:00+15e119052 0.0 101895
09:00+21se127016 0.0 1017615
12:00+26ese145233 0.0 10131566
15:00+26ese245780 0.0 10121045
18:00+19ese238464 0.2 101363
21:00+16se23923 0.3 101557